| time (UTC) | temp C | wind direction | speed KPH | gust KPH | rain 1hr cm | rain 24hr cm | rain mn cm | humidity % | barometer mb |
| 20260506154527 | 5 | 360 | 30.6 | 40.2 | 0.00 | 0.00 | 0.00 | 84 | 1010.4 |
| 20260506153011 | 5 | 360 | 29.0 | 40.2 | 0.00 | 0.00 | 0.00 | 83 | 1010.2 |
| 20260506151514 | 5 | 360 | 29.0 | 35.4 | 0.00 | 0.00 | 0.00 | 83 | 1010.2 |
| 20260506150004 | 5 | 360 | 25.7 | 32.2 | 0.00 | 0.00 | 0.00 | 82 | 1010.3 |
| 20260506144502 | 5 | 360 | 29.0 | 33.8 | 0.00 | 0.00 | 0.00 | 81 | 1010.3 |
| 20260506143102 | 5 | 360 | 29.0 | 35.4 | 0.00 | 0.00 | 0.00 | 80 | 1010.2 |
| 20260506141502 | 5 | 360 | 27.4 | 35.4 | 0.00 | 0.00 | 0.00 | 80 | 1010.2 |
| 20260506140019 | 5 | 360 | 19.3 | 27.4 | 0.00 | 0.00 | 0.00 | 82 | 1010.1 |
| 20260506134602 | 5 | 360 | 20.9 | 29.0 | 0.00 | 0.00 | 0.00 | 82 | 1010.2 |
| 20260506133103 | 5 | 360 | 29.0 | 33.8 | 0.00 | 0.00 | 0.00 | 80 | 1009.9 |
| 20260506131502 | 4 | 360 | 24.1 | 32.2 | 0.00 | 0.00 | 0.00 | 82 | 1009.9 |
| 20260506130103 | 4 | 360 | 25.7 | 35.4 | 0.00 | 0.00 | 0.00 | 83 | 1009.8 |
| 20260506124503 | 4 | 360 | 30.6 | 37.0 | 0.00 | 0.00 | 0.00 | 83 | 1009.7 |
| 20260506123007 | 4 | 360 | 25.7 | 33.8 | 0.00 | 0.00 | 0.00 | 84 | 1009.6 |
| 20260506121502 | 3 | 360 | 25.7 | 35.4 | 0.00 | 0.00 | 0.00 | 85 | 1009.6 |
| 20260506120003 | 3 | 360 | 29.0 | 37.0 | 0.00 | 0.00 | 0.00 | 84 | 1009.3 |
| 20260506114602 | 3 | 360 | 30.6 | 35.4 | 0.00 | 0.00 | 0.00 | 84 | 1009.3 |
| 20260506113012 | 3 | 360 | 27.4 | 33.8 | 0.00 | 0.00 | 0.00 | 85 | 1009.1 |
| 20260506111525 | 3 | 360 | 30.6 | 37.0 | 0.00 | 0.00 | 0.00 | 85 | 1008.9 |
| 20260506110013 | 3 | 360 | 29.0 | 37.0 | 0.00 | 0.00 | 0.00 | 85 | 1008.7 |
| 20260506104502 | 3 | 360 | 29.0 | 37.0 | 0.00 | 0.00 | 0.00 | 84 | 1008.5 |
| 20260506103106 | 3 | 360 | 32.2 | 40.2 | 0.00 | 0.00 | 0.00 | 83 | 1008.4 |
| 20260506101502 | 3 | 360 | 29.0 | 37.0 | 0.00 | 0.00 | 0.00 | 83 | 1008.2 |
| 20260506100012 | 3 | 360 | 32.2 | 38.6 | 0.00 | 0.00 | 0.00 | 83 | 1008.0 |
| 20260506094504 | 3 | 360 | 32.2 | 38.6 | 0.00 | 0.00 | 0.00 | 84 | 1007.8 |
| 20260506093012 | 3 | 360 | 30.6 | 37.0 | 0.00 | 0.00 | 0.00 | 84 | 1007.6 |
| 20260506091603 | 3 | 360 | 27.4 | 37.0 | 0.00 | 0.00 | 0.00 | 82 | 1007.5 |
| 20260506090002 | 3 | 360 | 29.0 | 41.8 | 0.00 | 0.00 | 0.00 | 83 | 1007.3 |
| 20260506084633 | 3 | 360 | 30.6 | 38.6 | 0.00 | 0.00 | 0.00 | 84 | 1007.1 |
| 20260506083000 | 3 | 360 | 27.4 | 37.0 | 0.00 | 0.00 | 0.00 | 84 | 1006.9 |
| 20260506081616 | 3 | 360 | 29.0 | 40.2 | 0.00 | 0.00 | 0.00 | 83 | 1006.7 |
| 20260506080105 | 3 | 360 | 30.6 | 38.6 | 0.00 | 0.00 | 0.00 | 83 | 1006.6 |
| 20260506073101 | 2 | 360 | 25.7 | 35.4 | 0.00 | 0.00 | 0.00 | 84 | 1006.1 |
| 20260506071600 | 2 | 360 | 27.4 | 37.0 | 0.00 | 0.00 | 0.00 | 83 | 1005.9 |
| 20260506061601 | 3 | 360 | 24.1 | 32.2 | 0.00 | 0.00 | 0.00 | 81 | 1004.9 |
| 20260506044601 | 3 | 360 | 16.1 | 32.2 | 0.00 | 0.00 | 0.00 | 81 | 1003.7 |
| 20260506043002 | 3 | 360 | 19.3 | 35.4 | 0.00 | 0.00 | 0.00 | 81 | 1003.6 |
| 20260506041514 | 3 | 360 | 17.7 | 35.4 | 0.00 | 0.00 | 0.00 | 81 | 1003.6 |
| 20260506040101 | 3 | 360 | 20.9 | 33.8 | 0.00 | 0.00 | 0.00 | 81 | 1003.4 |
| 20260506034603 | 3 | 360 | 20.9 | 35.4 | 0.00 | 0.00 | 0.00 | 81 | 1003.3 |
| 20260506033101 | 3 | 360 | 20.9 | 33.8 | 0.00 | 0.00 | 0.00 | 81 | 1003.2 |
| 20260506031610 | 3 | 360 | 22.5 | 33.8 | 0.00 | 0.00 | 0.00 | 81 | 1003.0 |
| 20260506030001 | 3 | 360 | 17.7 | 37.0 | 0.00 | 0.00 | 0.00 | 81 | 1002.9 |
| 20260506024501 | 3 | 360 | 17.7 | 35.4 | 0.00 | 0.00 | 0.00 | 81 | 1002.9 |
| 20260506023112 | 3 | 360 | 19.3 | 33.8 | 0.00 | 0.00 | 0.00 | 80 | 1002.7 |
| 20260506021605 | 3 | 360 | 20.9 | 32.2 | 0.00 | 0.00 | 0.00 | 80 | 1002.6 |
| 20260506020002 | 3 | 360 | 19.3 | 37.0 | 0.00 | 0.00 | 0.00 | 80 | 1002.6 |
| 20260506014601 | 3 | 360 | 20.9 | 35.4 | 0.00 | 0.00 | 0.00 | 79 | 1002.5 |
| 20260506013001 | 3 | 360 | 22.5 | 37.0 | 0.00 | 0.00 | 0.00 | 78 | 1002.4 |
| 20260506011607 | 3 | 360 | 20.9 | 32.2 | 0.00 | 0.00 | 0.00 | 79 | 1002.2 |
| 20260506010008 | 3 | 360 | 22.5 | 40.2 | 0.00 | 0.00 | 0.00 | 79 | 1002.1 |
| 20260506004511 | 3 | 360 | 19.3 | 37.0 | 0.00 | 0.00 | 0.00 | 79 | 1002.0 |
| 20260506003002 | 3 | 360 | 19.3 | 37.0 | 0.00 | 0.00 | 0.00 | 79 | 1001.9 |
| 20260506001501 | 3 | 360 | 19.3 | 32.2 | 0.00 | 0.00 | 0.00 | 79 | 1001.9 |
| 20260506000105 | 3 | 360 | 16.1 | 33.8 | 0.00 | 0.00 | 0.00 | 80 | 1001.7 |
| 20260505234502 | 3 | 360 | 17.7 | 32.2 | 0.00 | 0.00 | 0.00 | 80 | 1001.7 |
| 20260505233019 | 3 | 360 | 20.9 | 30.6 | 0.00 | 0.00 | 0.00 | 78 | 1001.6 |
| 20260505231501 | 3 | 360 | 19.3 | 35.4 | 0.00 | 0.00 | 0.00 | 78 | 1001.5 |
| 20260505230012 | 4 | 360 | 22.5 | 35.4 | 0.00 | 0.00 | 0.00 | 77 | 1001.6 |
| 20260505224502 | 4 | 360 | 20.9 | 35.4 | 0.00 | 0.00 | 0.00 | 76 | 1001.6 |
| 20260505223001 | 4 | 360 | 17.7 | 33.8 | 0.00 | 0.00 | 0.00 | 76 | 1001.5 |
| 20260505221604 | 4 | 360 | 22.5 | 33.8 | 0.00 | 0.00 | 0.00 | 76 | 1001.5 |
| 20260505220006 | 4 | 360 | 19.3 | 29.0 | 0.00 | 0.00 | 0.00 | 77 | 1001.5 |
| 20260505214502 | 5 | 360 | 14.5 | 25.7 | 0.00 | 0.03 | 0.00 | 78 | 1001.5 |
| 20260505213002 | 5 | 360 | 19.3 | 29.0 | 0.00 | 0.03 | 0.00 | 74 | 1001.5 |
| 20260505211502 | 5 | 360 | 16.1 | 29.0 | 0.00 | 0.03 | 0.00 | 74 | 1001.4 |
| 20260505210108 | 5 | 360 | 12.9 | 25.7 | 0.00 | 0.03 | 0.00 | 76 | 1001.3 |
| 20260505204511 | 5 | 360 | 16.1 | 30.6 | 0.00 | 0.38 | 0.03 | 75 | 1001.1 |
| 20260505203001 | 5 | 360 | 12.9 | 29.0 | 0.00 | 0.38 | 0.03 | 76 | 1001.1 |
| 20260505201601 | 4 | 360 | 11.3 | 25.7 | 0.00 | 0.38 | 0.03 | 77 | 1001.0 |
| 20260505200110 | 5 | 360 | 12.9 | 20.9 | 0.00 | 0.38 | 0.03 | 77 | 1001.0 |
| 20260505194502 | 5 | 360 | 12.9 | 22.5 | 0.00 | 0.58 | 0.03 | 77 | 1000.9 |
| 20260505193003 | 5 | 360 | 9.7 | 20.9 | 0.00 | 0.58 | 0.03 | 78 | 1000.9 |
| 20260505191502 | 5 | 360 | 12.9 | 25.7 | 0.00 | 0.58 | 0.03 | 79 | 1000.8 |
| 20260505184601 | 5 | 360 | 12.9 | 24.1 | 0.00 | 0.58 | 0.03 | 72 | 1000.6 |
| 20260505183101 | 6 | 360 | 19.3 | 33.8 | 0.00 | 0.58 | 0.03 | 65 | 1000.5 |
| 20260505181601 | 5 | 360 | 12.9 | 22.5 | 0.00 | 0.58 | 0.03 | 74 | 1000.3 |
| 20260505174511 | 5 | 360 | 25.7 | 30.6 | 0.00 | 0.58 | 0.03 | 76 | 1000.1 |
| 20260505173002 | 6 | 360 | 11.3 | 22.5 | 0.00 | 0.58 | 0.03 | 77 | 1000.1 |
| 20260505171601 | 5 | 360 | 11.3 | 29.0 | 0.00 | 0.58 | 0.03 | 80 | 1000.0 |
| 20260505170011 | 5 | 360 | 24.1 | 29.0 | 0.00 | 0.58 | 0.03 | 81 | 1000.0 |
| 20260505164602 | 5 | 360 | 24.1 | 35.4 | 0.00 | 0.58 | 0.03 | 83 | 1000.0 |
| 20260505163003 | 5 | 360 | 27.4 | 35.4 | 0.00 | 0.58 | 0.03 | 83 | 1000.1 |
| 20260505161610 | 5 | 360 | 30.6 | 38.6 | 0.00 | 0.58 | 0.03 | 81 | 999.9 |